Location: Niles Junction
(37.5763°N, 121.9714°W)
Time: 14:53:44
(UTC+00:00)

Daily predictions for brighter satellites

Satellite Brightness Start Highest point End
(mag) Time Altitude Azimuth Time Altitude Azimuth Time Altitude Azimuth
Cosmos 44 Rocket 4.4 12:10:28 37° SSE 12:10:28 37° SSE 12:13:35 10° SSE
ERS-2 4.3 12:06:34 10° SE 12:09:34 25° ENE 12:10:47 21° NE
Nadezhda 4 Rocket 4.0 12:03:48 10° S 12:09:53 77° E 12:16:02 10° N
CZ-4B R/B 4.2 12:07:52 10° ESE 12:10:18 18° ENE 12:12:43 10° NNE
Cosmos 2082 Rocket 2.3 12:09:55 56° S 12:11:02 72° ESE 12:16:38 10° NNE
Cosmos 2369 4.4 12:08:19 21° N 12:11:55 52° ENE 12:17:24 10° SE
Lacrosse 5 rocket 3.9 12:18:45 10° NNE 12:18:45 10° NNE 12:18:47 10° NNE
DELTA 2 R/B (1) 4.3 12:19:26 39° S 12:19:26 39° S 12:23:50 10° SE
Cosmos 2180 Rocket 4.3 12:13:47 10° NNW 12:19:58 67° W 12:26:03 10° S
ALOS 3.1 12:22:54 10° NNE 12:27:27 51° E 12:31:59 10° S
BREEZE-M DEB (TANK) 4.5 12:28:33 42° NW 12:30:48 85° NE 12:50:30 10° SE
Cosmos 1697 Rocket 2.6 12:31:55 29° NNW 12:34:57 84° WSW 12:40:36 10° SSE
Abrixas rocket 4.2 12:38:21 21° NE 12:38:21 21° NE 12:40:03 10° E
ISS -1.0 12:41:10 11° N 12:41:10 11° N 12:41:34 10° NNE
COSMOS 2406 4.4 12:41:49 24° NNW 12:41:49 24° NNW 12:45:02 10° N
FENGYUN 3A 3.8 12:36:48 10° NNE 12:42:15 77° ESE 12:47:41 10° S
ATLAS CENTAUR R/B 3.5 12:42:10 10° S 12:45:28 25° ESE 12:48:38 10° ENE
ATLAS 3B R/B 2.8 12:44:55 39° W 12:46:46 49° NW 12:53:11 10° NNE
ADEOS 3.5 12:43:37 10° NNE 12:48:52 89° WNW 12:54:05 10° SSW
ADEOS Rocket 2.9 12:44:57 10° S 12:50:12 47° W 12:55:33 10° NNW
Cosmos 1400 Rocket 3.3 12:46:31 10° N 12:50:24 58° E 12:54:12 10° SSE
Cosmos 1300 2.7 12:46:48 10° N 12:50:37 79° E 12:54:25 10° S
Meteor 2-5 Rocket 3.7 12:46:03 10° SSW 12:51:37 58° WNW 12:57:22 10° N
Cosmos 1980 Rocket 2.2 12:52:45 10° NNW 12:58:23 79° ENE 13:03:59 10° SSE
SL-14 R/B 4.2 13:02:57 31° NW 13:02:57 31° NW 13:05:36 10° N
CZ-4B R/B 3.7 12:58:13 10° NNE 13:02:21 87° W 13:06:15 10° SSW
Cosmos 2228 3.1 12:59:28 10° NNW 13:03:45 53° W 13:08:01 10° S
Cosmos 1726 Rocket 3.4 12:59:28 10° N 13:03:56 76° W 13:08:22 10° S
Cosmos 1992 Rocket 3.9 12:59:41 10° NNW 13:04:51 65° WSW 13:10:00 10° S
Cosmos 2026 Rocket 4.0 13:00:14 10° S 13:06:36 82° W 13:13:01 10° N
Cosmos 2195 Rocket 4.4 13:05:49 10° SSW 13:11:57 63° W 13:18:05 10° N
CZ-2C R/B 3.8 13:13:27 10° NNW 13:16:07 19° NW 13:16:07 19° NW
Meteor PRIRODA 4.1 13:13:56 10° NNE 13:17:34 63° E 13:21:12 10° S
Meteor 2-10 Rocket 4.3 13:13:20 10° N 13:18:16 53° ENE 13:23:18 10° SSE
Cosmos 614 Rocket 3.9 13:13:18 10° SSW 13:18:25 67° WNW 13:23:32 10° NNE
Cosmos 1606 Rocket 4.1 13:16:08 10° NNW 13:20:15 37° W 13:24:21 10° SSW
Cosmos 1484 Rocket 3.4 13:18:14 10° N 13:21:40 32° WNW 13:25:03 10° SW
Cosmos 1315 Rocket 4.0 13:19:58 10° N 13:23:58 47° ENE 13:27:57 10° SSE
Cosmos 1689 Rocket 2.2 13:22:12 10° SSE 13:25:07 71° ENE 13:28:01 10° N
H-2A R/B 4.3 13:23:38 10° SW 13:23:42 10° SW 13:23:42 10° SW
COSMO-SKYMED 1 2.6 13:23:17 10° SSE 13:27:38 86° ENE 13:31:59 10° NNW
Cosmos 1833 Rocket 4.2 13:29:06 15° WNW 13:29:45 15° NW 13:32:56 10° NNW
Cosmos 2322 Rocket 3.9 13:26:06 10° N 13:31:12 33° ENE 13:36:15 10° SE
Cosmos 2278 3.9 13:26:04 10° NNW 13:31:32 51° WSW 13:36:57 10° S
Uosat 12 SS-18 rocket 4.3 13:26:40 10° SSW 13:31:38 81° ESE 13:36:01 10° NNE
METEOR-M 4.4 13:28:01 10° N 13:33:06 45° WNW 13:38:07 10° SW
SAR-Lupe-4 3.9 13:32:20 10° S 13:35:45 44° W 13:39:11 10° NNW
SJ-12 4.0 13:32:17 10° N 13:36:17 52° WNW 13:40:15 10° SSW
Cosmos 1455 3.1 13:34:15 10° N 13:38:03 52° E 13:41:49 10° SSE
H-2A R/B 3.8 13:37:09 10° NNE 13:41:18 46° E 13:45:16 10° S
Cosmos 1023 Rocket 4.4 13:36:42 10° SSW 13:41:47 77° WNW 13:46:52 10° NNE
CZ-4B R/B 2.7 13:39:41 10° SSW 13:42:23 21° W 13:45:05 10° NW
ERS-2 3.6 13:40:36 10° SW 13:43:04 17° W 13:45:22 11° NW
Meteor 1-31 Rocket 3.9 13:43:40 10° NNW 13:46:51 24° WNW 13:50:01 10° SW
Meteor 2-19 Rocket 4.4 13:41:38 10° SSW 13:47:40 70° W 13:53:44 10° N
CREW DRAGON DEMO-1 DEB 4.2 13:48:50 10° NNW 13:51:37 33° NE 13:54:24 10° ESE
Cosmos 2292 Rocket 2.8 13:48:52 10° S 13:51:55 86° W 13:55:35 10° N
Cosmos 1703 3.5 13:48:26 10° S 13:52:17 72° E 13:56:10 10° NNE
Cosmos 1190 Rocket 4.0 13:48:51 10° SSW 13:54:01 62° WNW 13:59:13 10° N
Cosmos 2082 Rocket 3.7 13:52:15 10° W 13:55:41 16° NW 13:59:08 10° NNW
Cosmos 2058 Rocket 3.9 13:53:54 10° NNW 13:57:47 29° W 14:01:38 10° SSW
PSLV R/B 4.4 13:57:27 10° S 14:01:26 43° W 14:05:28 10° NNW
ALOS 3.8 14:01:44 10° NNW 14:04:25 15° WNW 14:07:05 10° W
Cosmos 2098 Rocket 3.9 14:01:52 10° SSW 14:07:49 50° W 14:12:38 10° N
